Weather History for Hurlburt Field, FL

Change the Weather History Date:

Thursday, June 6, 2013

  Actual Average Record
Temperature  
Mean Temperature 79 °F -  
Max Temperature 88 °F 83 °F 92 °F (2011)
Min Temperature 71 °F 70 °F 62 °F (2006)
Cooling Degree Days 14    
Growing Degree Days 29 (Base 50)    
Moisture  
Dew Point 75 °F    
Average Humidity 90    
Maximum Humidity 100    
Minimum Humidity 66    
Precipitation  
Precipitation 0.02 in - - ()
Sea Level Pressure  
Sea Level Pressure 29.77 in    
Wind  
Wind Speed 9 mph (NNE)    
Max Wind Speed 15 mph    
Max Gust Speed 20 mph    
Visibility 10 miles    
Events Rain    
Averages and records for this station are not official NWS values.
T = Trace of Precipitation, MM = Missing Value Source: NWS Daily Summary

Daily Weather History Graph

Daily Weather History Graph

Search for Another Location

Airport:

Trip Planner

Search our weather history database for the weather conditions in past years. The results will help you decide how hot, cold, wet, or windy it might be!

Date:

Astronomy

Jun. 06, 2013 Rise Set
Actual Time 5:44 AM CDT 7:46 PM CDT
Civil Twilight 5:16 AM CDT 8:14 PM CDT
Nautical Twilight 4:43 AM CDT 8:47 PM CDT
Astronomical Twilight 4:08 AM CDT 9:23 PM CDT
Moon 4:18 AM CDT (6/6) 6:13 PM CDT (6/6)
Length of Visible Light 14h 57m
Length of Day
14h 02m
Waning Crescent, 3% of the Moon is Illuminated
Jun 6
Waning Crescent
Jun 8
New
Jun 16
First Quarter
Jun 23
Full
Jun 29
Last Quarter

Hourly Weather History & Observations

Time (CDT) Temp. Heat Index Dew Point Humidity Pressure Visibility Wind Dir Wind Speed Gust Speed Precip Events Conditions
12:59 AM 75.2 °F - 75.2 °F 100% 29.90 in 9.0 mi NNW 10.4 mph - N/A   Mostly Cloudy
1:47 AM 71.6 °F - 71.6 °F 100% 29.84 in 7.0 mi NE 5.8 mph - N/A   Mostly Cloudy
1:55 AM 72.1 °F - 72.1 °F 100% 29.83 in 9.0 mi East 10.4 mph - 0.02 in Rain Light Rain
2:14 AM 71.6 °F - 71.6 °F 100% 29.79 in 10.0 mi SE 13.8 mph - N/A   Mostly Cloudy
2:55 AM 75.9 °F - 75.7 °F 99% 29.76 in 10.0 mi Calm Calm - 0.00 in   Mostly Cloudy
3:55 AM 77.0 °F - 77.0 °F 100% 29.76 in 10.0 mi East 3.5 mph - N/A   Partly Cloudy
4:55 AM 71.6 °F - 71.6 °F 100% 29.79 in 10.0 mi NNW 5.8 mph - N/A   Scattered Clouds
5:58 AM 71.6 °F - 71.6 °F 100% 29.79 in 10.0 mi NNW 5.8 mph - N/A   Mostly Cloudy
6:55 AM 71.6 °F - 71.6 °F 100% 29.79 in 10.0 mi NNE 9.2 mph - N/A   Mostly Cloudy
7:55 AM 73.4 °F - 73.4 °F 100% 29.79 in 10.0 mi NE 11.5 mph - N/A   Mostly Cloudy
8:57 AM 77.0 °F - 77.0 °F 100% 29.78 in 10.0 mi NE 11.5 mph - N/A   Mostly Cloudy
9:56 AM 80.6 °F 88.1 °F 78.8 °F 94% 29.78 in 10.0 mi NE 11.5 mph - N/A   Mostly Cloudy
10:55 AM 80.6 °F 88.1 °F 78.8 °F 94% 29.81 in 10.0 mi North 12.7 mph - N/A   Overcast
11:55 AM 84.2 °F 98.3 °F 80.6 °F 89% 29.78 in 10.0 mi ENE 15.0 mph 19.6 mph N/A   Mostly Cloudy
12:55 PM 84.2 °F 98.3 °F 80.6 °F 89% 29.77 in 10.0 mi NE 9.2 mph - N/A   Mostly Cloudy
12:58 PM 84.2 °F 98.3 °F 80.6 °F 89% 29.77 in 10.0 mi NE 9.2 mph - N/A   Mostly Cloudy
2:00 PM 84.2 °F 96.1 °F 78.8 °F 84% 29.75 in 10.0 mi NE 10.4 mph - N/A   Mostly Cloudy
2:55 PM 87.8 °F 99.7 °F 77.0 °F 70% 29.73 in 10.0 mi North 11.5 mph - N/A   Mostly Cloudy
3:55 PM 87.8 °F 97.6 °F 75.2 °F 66% 29.71 in 10.0 mi North 13.8 mph - N/A   Scattered Clouds
4:55 PM 87.8 °F 97.6 °F 75.2 °F 66% 29.71 in 10.0 mi North 15.0 mph - N/A   Mostly Cloudy
5:55 PM 86.0 °F 95.1 °F 75.2 °F 70% 29.71 in 10.0 mi North 10.4 mph - N/A   Scattered Clouds
6:55 PM 84.2 °F 92.3 °F 75.2 °F 74% 29.72 in 10.0 mi North 9.2 mph - 0.00 in   Partly Cloudy
7:55 PM 80.6 °F 85.4 °F 73.4 °F 79% 29.74 in 10.0 mi NNE 3.5 mph - N/A   Scattered Clouds
8:55 PM 80.6 °F 86.2 °F 75.2 °F 84% 29.76 in 10.0 mi Calm Calm - N/A   Scattered Clouds
9:55 PM 78.8 °F - 75.2 °F 89% 29.77 in 10.0 mi North 3.5 mph - N/A   Scattered Clouds
10:55 PM 75.9 °F - 75.0 °F 97% 29.76 in 10.0 mi North 3.5 mph - 0.00 in   Clear
11:55 PM 74.7 °F - 74.7 °F 100% 29.76 in 10.0 mi North 5.8 mph - N/A   Clear